• In Czech Republic
  • List of Countries
  • For 7 days
  • Water Temperature
  • Satellite Maps
  • Weather Map
  • Weather Widgets
  • user-avatar
    Login

    Hourly Weather Yeghegnadzor

    Today, 22 January, Monday

    Time Temperature Precipitation Wind Pressure Humidity
    00:00 -1°C° 0 mm 2 mps 651 mmHg 57%
    01:00 -1°C° 0 mm 2 mps 651 mmHg 56%
    02:00 -1°C° 0 mm 2 mps 651 mmHg 55%
    03:00 -1°C° 0 mm 2 mps 651 mmHg 54%
    04:00 -1°C° 0 mm 2 mps 650 mmHg 53%
    05:00 -1°C° 0 mm 2 mps 650 mmHg 52%
    06:00 -1°C° 0 mm 3 mps 650 mmHg 51%
    07:00 +1°C° 0 mm 2 mps 650 mmHg 51%
    08:00 +2°C° 0 mm 2 mps 650 mmHg 52%
    09:00 +3°C° 0 mm 2 mps 650 mmHg 52%
    10:00 +4°C° 0 mm 2 mps 650 mmHg 55%
    11:00 +5°C° 0 mm 2 mps 649 mmHg 57%
    12:00 +6°C° 0 mm 2 mps 649 mmHg 59%
    13:00 +6°C° 0 mm 2 mps 649 mmHg 59%
    14:00 +6°C° 0 mm 2 mps 648 mmHg 58%
    15:00 +5°C° 0 mm 3 mps 647 mmHg 58%
    16:00 +3°C° 0 mm 3 mps 647 mmHg 54%
    17:00 +2°C° 0 mm 3 mps 647 mmHg 49%
    18:00 0°C° 0 mm 3 mps 647 mmHg 45%
    19:00 0°C° 0 mm 3 mps 646 mmHg 44%
    20:00 -1°C° 0 mm 3 mps 646 mmHg 44%
    21:00 -1°C° 0 mm 3 mps 646 mmHg 43%
    22:00 -2°C° 0 mm 3 mps 646 mmHg 44%
    23:00 -2°C° 0 mm 3 mps 646 mmHg 46%

    Tomorrow, 23 January, Tuesday

    Time Temperature Precipitation Wind Pressure Humidity
    00:00 -2°C° 0 mm 3 mps 646 mmHg 48%
    01:00 -2°C° 0 mm 3 mps 646 mmHg 49%
    02:00 -4°C° 0 mm 3 mps 646 mmHg 51%
    03:00 -4°C° 0 mm 3 mps 646 mmHg 53%
    04:00 -4°C° 0 mm 3 mps 646 mmHg 54%
    05:00 -4°C° 0 mm 3 mps 646 mmHg 55%
    06:00 -3°C° 0 mm 2 mps 646 mmHg 57%
    07:00 -2°C° 0 mm 2 mps 647 mmHg 57%
    08:00 -2°C° 0 mm 2 mps 647 mmHg 58%
    09:00 -1°C° 0 mm 2 mps 647 mmHg 58%
    10:00 +2°C° 0 mm 2 mps 647 mmHg 57%
    11:00 +2°C° 0 mm 3 mps 647 mmHg 55%
    12:00 +3°C° 0 mm 3 mps 647 mmHg 54%
    13:00 +4°C° 0 mm 2 mps 647 mmHg 55%
    14:00 +4°C° 0 mm 2 mps 647 mmHg 56%
    15:00 +4°C° 0 mm 2 mps 646 mmHg 57%
    16:00 +3°C° 0 mm 2 mps 646 mmHg 57%
    17:00 +1°C° 0 mm 2 mps 647 mmHg 56%
    18:00 -1°C° 0 mm 2 mps 647 mmHg 56%
    19:00 -1°C° 0 mm 2 mps 647 mmHg 55%
    20:00 -1°C° 0 mm 2 mps 647 mmHg 54%
    21:00 -1°C° 0 mm 2 mps 647 mmHg 53%
    22:00 -1°C° 0 mm 2 mps 647 mmHg 54%
    23:00 +1°C° 0 mm 2 mps 647 mmHg 55%

    Day after tomorrow, 24 January, Wednesday

    Time Temperature Precipitation Wind Pressure Humidity
    00:00 +1°C° 0 mm 2 mps 647 mmHg 56%
    01:00 +1°C° 0.1 mm 2 mps 647 mmHg 59%
    02:00 +1°C° 0.1 mm 2 mps 647 mmHg 62%
    03:00 -1°C° 0.1 mm 2 mps 648 mmHg 65%
    04:00 -1°C° 0.1 mm 2 mps 648 mmHg 67%
    05:00 -1°C° 0.1 mm 2 mps 648 mmHg 69%
    06:00 -1°C° 0.1 mm 2 mps 648 mmHg 71%
    07:00 -1°C° 0.1 mm 2 mps 649 mmHg 71%
    08:00 +2°C° 0.1 mm 1 mps 649 mmHg 71%
    09:00 +2°C° 0.1 mm 1 mps 650 mmHg 71%
    10:00 +3°C° 0 mm 1 mps 650 mmHg 70%
    11:00 +3°C° 0 mm 2 mps 650 mmHg 68%
    12:00 +4°C° 0 mm 2 mps 650 mmHg 67%
    13:00 +5°C° 0 mm 1 mps 650 mmHg 67%
    14:00 +5°C° 0 mm 1 mps 650 mmHg 67%
    15:00 +5°C° 0 mm 1 mps 650 mmHg 67%
    16:00 +3°C° 0 mm 1 mps 650 mmHg 68%
    17:00 +2°C° 0 mm 1 mps 650 mmHg 70%
    18:00 +1°C° 0 mm 1 mps 650 mmHg 72%
    19:00 +1°C° 0 mm 1 mps 650 mmHg 70%
    20:00 +1°C° 0 mm 1 mps 650 mmHg 68%
    21:00 -1°C° 0 mm 2 mps 651 mmHg 66%
    22:00 -1°C° 0.1 mm 2 mps 651 mmHg 67%
    23:00 +1°C° 0.1 mm 1 mps 651 mmHg 68%

    25 January, Thursday

    Time Temperature Precipitation Wind Pressure Humidity
    00:00 +1°C° 0.1 mm 1 mps 651 mmHg 69%
    01:00 +1°C° 0.2 mm 1 mps 652 mmHg 72%
    02:00 +1°C° 0.2 mm 1 mps 652 mmHg 74%
    03:00 +1°C° 0.2 mm 1 mps 652 mmHg 77%
    04:00 +1°C° 0.2 mm 1 mps 652 mmHg 78%
    05:00 +1°C° 0.2 mm 1 mps 652 mmHg 79%
    06:00 +1°C° 0.2 mm 1 mps 652 mmHg 80%
    07:00 +2°C° 0.2 mm 1 mps 652 mmHg 81%
    08:00 +1°C° 0.2 mm 2 mps 652 mmHg 81%
    09:00 +1°C° 0.2 mm 2 mps 653 mmHg 81%
    10:00 +3°C° 0.4 mm 1 mps 653 mmHg 80%
    11:00 +4°C° 0.4 mm 1 mps 652 mmHg 79%
    12:00 +4°C° 0.4 mm 1 mps 652 mmHg 79%
    13:00 +4°C° 0.5 mm 1 mps 652 mmHg 79%
    14:00 +4°C° 0.5 mm 1 mps 652 mmHg 79%
    15:00 +5°C° 0.5 mm 1 mps 652 mmHg 79%
    16:00 +4°C° 0.4 mm 1 mps 652 mmHg 80%
    17:00 +3°C° 0.4 mm 1 mps 652 mmHg 82%
    18:00 +2°C° 0.4 mm 2 mps 652 mmHg 83%
    19:00 +2°C° 0.2 mm 2 mps 652 mmHg 83%
    20:00 +2°C° 0.2 mm 2 mps 652 mmHg 83%
    21:00 +1°C° 0.2 mm 2 mps 653 mmHg 83%
    22:00 +1°C° 0.2 mm 2 mps 653 mmHg 82%
    23:00 +1°C° 0.2 mm 2 mps 652 mmHg 82%

    26 January, Friday

    Time Temperature Precipitation Wind Pressure Humidity
    00:00 +1°C° 0.2 mm 2 mps 652 mmHg 82%
    01:00 +1°C° 0.1 mm 2 mps 652 mmHg 82%
    02:00 -1°C° 0.1 mm 2 mps 652 mmHg 82%
    03:00 -1°C° 0.1 mm 2 mps 652 mmHg 82%
    04:00 -1°C° 0.2 mm 2 mps 652 mmHg 83%
    05:00 -1°C° 0.2 mm 2 mps 652 mmHg 84%
    06:00 -1°C° 0.2 mm 2 mps 652 mmHg 84%
    07:00 -1°C° 0.5 mm 2 mps 652 mmHg 85%
    08:00 +1°C° 0.5 mm 2 mps 652 mmHg 85%
    09:00 +1°C° 0.5 mm 2 mps 652 mmHg 85%
    10:00 +2°C° 0.5 mm 2 mps 652 mmHg 84%
    11:00 +2°C° 0.5 mm 2 mps 651 mmHg 83%
    12:00 +3°C° 0.5 mm 2 mps 651 mmHg 82%
    13:00 +3°C° 0.3 mm 2 mps 651 mmHg 82%
    14:00 +3°C° 0.3 mm 2 mps 651 mmHg 83%
    15:00 +3°C° 0.3 mm 2 mps 651 mmHg 83%
    16:00 +3°C° 0.4 mm 1 mps 651 mmHg 85%
    17:00 +2°C° 0.4 mm 1 mps 651 mmHg 87%
    18:00 +2°C° 0.4 mm 1 mps 651 mmHg 89%
    19:00 +2°C° 0.2 mm 1 mps 651 mmHg 88%
    20:00 +1°C° 0.2 mm 1 mps 651 mmHg 88%
    21:00 -1°C° 0.2 mm 2 mps 651 mmHg 87%
    22:00 +1°C° 0.2 mm 1 mps 651 mmHg 87%
    23:00 +1°C° 0.2 mm 1 mps 651 mmHg 86%

    27 January, Saturday

    Time Temperature Precipitation Wind Pressure Humidity
    00:00 +1°C° 0.2 mm 1 mps 651 mmHg 86%
    01:00 +1°C° 0.2 mm 1 mps 651 mmHg 86%
    02:00 0°C° 0.2 mm 1 mps 651 mmHg 86%
    03:00 0°C° 0.2 mm 1 mps 651 mmHg 87%
    04:00 0°C° 0.2 mm 1 mps 651 mmHg 87%
    05:00 -2°C° 0.2 mm 2 mps 651 mmHg 87%
    06:00 -3°C° 0.2 mm 2 mps 651 mmHg 87%
    07:00 -2°C° 0.1 mm 2 mps 651 mmHg 85%
    08:00 -2°C° 0.1 mm 2 mps 652 mmHg 84%
    09:00 +1°C° 0.1 mm 1 mps 652 mmHg 83%
    10:00 -1°C° 0.2 mm 2 mps 652 mmHg 81%
    11:00 +1°C° 0.2 mm 2 mps 652 mmHg 79%
    12:00 +1°C° 0.2 mm 2 mps 652 mmHg 77%
    13:00 +1°C° 0.2 mm 2 mps 652 mmHg 77%
    14:00 +1°C° 0.2 mm 2 mps 652 mmHg 77%
    15:00 +1°C° 0.2 mm 2 mps 652 mmHg 77%
    16:00 +1°C° 0.2 mm 2 mps 652 mmHg 80%
    17:00 -1°C° 0.2 mm 2 mps 652 mmHg 82%
    18:00 0°C° 0.2 mm 1 mps 653 mmHg 84%
    19:00 0°C° 0.2 mm 1 mps 653 mmHg 84%
    20:00 0°C° 0.2 mm 1 mps 653 mmHg 84%
    21:00 -1°C° 0.2 mm 1 mps 653 mmHg 84%
    22:00 -1°C° 0.1 mm 1 mps 653 mmHg 84%
    23:00 -2°C° 0.1 mm 1 mps 653 mmHg 84%
    Show more